Total_Precipitation_Accumulation
0.23 0.14 0.14 0.18 0.16 0.17 0.22 0.24 0.22 0.10 0.06 0.04 0.03 0.04 0.04 0.04 0.03 0.03 0.03 0.04 0.06 0.06 0.06 0.07 0.09 0.10 0.14 0.17 0.21 0.25 0.31 0.34 0.34 0.35 0.39 0.39 0.40 0.43 0.46 0.50 0.52 0.53 0.52 0.53
0.25 0.15 0.15 0.16 0.12 0.10 0.11 0.10 0.09 0.06 0.06 0.04 0.03 0.02 0.02 0.03 0.04 0.04 0.05 0.06 0.07 0.08 0.08 0.08 0.12 0.17 0.23 0.29 0.32 0.35 0.40 0.41 0.39 0.36 0.36 0.40 0.40 0.40 0.43 0.47 0.47 0.46 0.47 0.48
0.38 0.17 0.27 0.29 0.12 0.07 0.08 0.06 0.06 0.06 0.05 0.04 0.03 0.02 0.02 0.02 0.04 0.05 0.06 0.07 0.09 0.10 0.13 0.14 0.18 0.25 0.31 0.35 0.36 0.37 0.41 0.44 0.44 0.40 0.35 0.37 0.39 0.36 0.36 0.36 0.37 0.37 0.38 0.39
0.59 0.39 0.50 0.21 0.05 0.05 0.06 0.06 0.06 0.05 0.04 0.04 0.03 0.02 0.02 0.03 0.06 0.07 0.09 0.11 0.13 0.15 0.17 0.20 0.25 0.29 0.34 0.36 0.38 0.38 0.38 0.38 0.39 0.34 0.28 0.28 0.32 0.30 0.28 0.28 0.32 0.35 0.35 0.34
0.77 0.58 0.31 0.08 0.03 0.04 0.08 0.09 0.08 0.06 0.05 0.04 0.03 0.03 0.04 0.06 0.07 0.08 0.09 0.10 0.10 0.11 0.14 0.18 0.23 0.26 0.27 0.28 0.30 0.29 0.27 0.24 0.26 0.22 0.20 0.22 0.26 0.24 0.23 0.23 0.26 0.30 0.33 0.36
0.83 0.67 0.30 0.08 0.03 0.04 0.09 0.12 0.08 0.07 0.07 0.06 0.09 0.22 0.12 0.11 0.08 0.06 0.05 0.05 0.06 0.06 0.08 0.10 0.14 0.16 0.16 0.18 0.19 0.20 0.19 0.17 0.20 0.17 0.15 0.17 0.22 0.21 0.22 0.22 0.25 0.28 0.31 0.38
0.67 0.59 0.23 0.06 0.03 0.05 0.16 0.17 0.12 0.11 0.10 0.14 0.21 0.27 0.16 0.10 0.08 0.06 0.05 0.04 0.04 0.05 0.07 0.10 0.12 0.13 0.14 0.12 0.12 0.12 0.13 0.14 0.19 0.19 0.15 0.14 0.17 0.20 0.21 0.23 0.26 0.27 0.29 0.33
0.46 0.60 0.26 0.05 0.06 0.12 0.17 0.13 0.12 0.14 0.16 0.21 0.16 0.08 0.07 0.07 0.07 0.05 0.04 0.04 0.04 0.06 0.09 0.14 0.16 0.12 0.09 0.08 0.07 0.08 0.11 0.13 0.18 0.23 0.18 0.15 0.16 0.18 0.19 0.21 0.26 0.27 0.29 0.31
0.29 0.22 0.08 0.06 0.09 0.10 0.11 0.13 0.17 0.25 0.25 0.23 0.20 0.13 0.11 0.09 0.06 0.05 0.05 0.06 0.07 0.08 0.13 0.17 0.13 0.08 0.07 0.07 0.06 0.08 0.10 0.14 0.18 0.22 0.19 0.17 0.19 0.19 0.18 0.20 0.26 0.31 0.32 0.34
0.21 0.11 0.06 0.06 0.05 0.06 0.08 0.13 0.17 0.21 0.23 0.25 0.26 0.19 0.15 0.12 0.09 0.07 0.07 0.08 0.09 0.10 0.13 0.15 0.11 0.06 0.06 0.06 0.06 0.07 0.10 0.14 0.19 0.21 0.21 0.20 0.19 0.19 0.19 0.22 0.36 0.46 0.44 0.42
0.14 0.08 0.08 0.07 0.06 0.06 0.09 0.09 0.08 0.09 0.13 0.22 0.27 0.21 0.13 0.11 0.11 0.12 0.12 0.12 0.12 0.13 0.14 0.13 0.09 0.06 0.06 0.07 0.09 0.10 0.11 0.15 0.20 0.23 0.23 0.24 0.21 0.21 0.23 0.25 0.45 0.68 0.64 0.65
0.09 0.07 0.08 0.07 0.06 0.08 0.12 0.10 0.10 0.12 0.14 0.15 0.18 0.17 0.13 0.14 0.15 0.16 0.18 0.19 0.19 0.16 0.12 0.10 0.09 0.07 0.07 0.09 0.12 0.14 0.15 0.17 0.21 0.25 0.26 0.26 0.26 0.26 0.26 0.28 0.36 0.42 0.46 0.57
0.05 0.05 0.06 0.06 0.06 0.06 0.09 0.12 0.14 0.16 0.15 0.12 0.11 0.13 0.19 0.22 0.21 0.20 0.21 0.21 0.18 0.14 0.12 0.12 0.11 0.10 0.10 0.13 0.16 0.18 0.19 0.22 0.26 0.27 0.29 0.30 0.31 0.32 0.31 0.28 0.28 0.30 0.33 0.40
0.04 0.06 0.08 0.06 0.05 0.06 0.09 0.11 0.14 0.16 0.14 0.11 0.10 0.11 0.16 0.19 0.19 0.17 0.17 0.15 0.12 0.11 0.11 0.12 0.12 0.12 0.12 0.15 0.19 0.22 0.23 0.26 0.29 0.31 0.32 0.33 0.35 0.34 0.33 0.33 0.32 0.32 0.32 0.35
0.04 0.05 0.08 0.07 0.05 0.07 0.09 0.11 0.12 0.13 0.12 0.11 0.10 0.12 0.14 0.17 0.19 0.19 0.16 0.12 0.11 0.11 0.12 0.12 0.12 0.12 0.13 0.15 0.18 0.21 0.23 0.25 0.29 0.32 0.34 0.35 0.37 0.37 0.36 0.34 0.34 0.35 0.35 0.38
0.06 0.07 0.07 0.07 0.08 0.10 0.10 0.11 0.12 0.13 0.12 0.12 0.13 0.13 0.13 0.14 0.14 0.15 0.14 0.13 0.12 0.12 0.13 0.13 0.14 0.13 0.14 0.16 0.19 0.21 0.22 0.27 0.32 0.33 0.35 0.36 0.39 0.40 0.40 0.40 0.40 0.39 0.41 0.45
0.09 0.09 0.09 0.10 0.11 0.12 0.13 0.14 0.14 0.13 0.10 0.09 0.10 0.10 0.10 0.09 0.09 0.10 0.11 0.12 0.12 0.12 0.12 0.14 0.15 0.14 0.15 0.17 0.22 0.24 0.25 0.28 0.32 0.33 0.34 0.37 0.41 0.45 0.46 0.48 0.49 0.46 0.42 0.43
0.10 0.12 0.14 0.15 0.15 0.14 0.14 0.12 0.10 0.09 0.09 0.08 0.08 0.08 0.09 0.09 0.10 0.09 0.10 0.10 0.10 0.10 0.12 0.14 0.16 0.15 0.14 0.17 0.25 0.27 0.30 0.33 0.34 0.35 0.36 0.39 0.45 0.47 0.48 0.50 0.50 0.47 0.43 0.41
0.10 0.11 0.12 0.13 0.14 0.15 0.13 0.11 0.09 0.08 0.08 0.08 0.09 0.10 0.10 0.10 0.11 0.11 0.10 0.10 0.10 0.12 0.13 0.14 0.16 0.14 0.14 0.18 0.29 0.32 0.36 0.38 0.37 0.36 0.37 0.43 0.44 0.42 0.45 0.48 0.48 0.46 0.44 0.42
0.11 0.11 0.12 0.13 0.13 0.13 0.12 0.09 0.08 0.07 0.07 0.08 0.08 0.09 0.09 0.10 0.11 0.11 0.11 0.11 0.13 0.17 0.15 0.15 0.16 0.17 0.21 0.25 0.36 0.39 0.42 0.43 0.42 0.39 0.39 0.42 0.43 0.43 0.44 0.45 0.47 0.47 0.45 0.44
0.13 0.13 0.14 0.14 0.12 0.10 0.08 0.07 0.07 0.07 0.07 0.07 0.07 0.09 0.09 0.10 0.10 0.11 0.12 0.13 0.13 0.16 0.15 0.17 0.19 0.28 0.35 0.41 0.44 0.41 0.41 0.43 0.43 0.44 0.45 0.46 0.48 0.46 0.45 0.46 0.47 0.48 0.47 0.45
0.14 0.15 0.15 0.15 0.12 0.10 0.08 0.08 0.08 0.08 0.08 0.08 0.08 0.10 0.11 0.12 0.12 0.13 0.15 0.17 0.18 0.21 0.20 0.19 0.28 0.45 0.47 0.47 0.42 0.41 0.39 0.38 0.40 0.43 0.46 0.50 0.53 0.53 0.51 0.50 0.53 0.51 0.48 0.48
0.15 0.16 0.17 0.16 0.14 0.12 0.11 0.10 0.10 0.10 0.10 0.11 0.12 0.13 0.16 0.17 0.18 0.21 0.24 0.23 0.23 0.26 0.24 0.24 0.36 0.44 0.45 0.41 0.39 0.38 0.38 0.40 0.42 0.45 0.48 0.53 0.56 0.59 0.61 0.59 0.56 0.55 0.55 0.53
0.19 0.19 0.19 0.17 0.14 0.13 0.13 0.13 0.13 0.13 0.14 0.14 0.16 0.17 0.18 0.20 0.22 0.23 0.26 0.27 0.27 0.27 0.25 0.28 0.34 0.37 0.36 0.35 0.35 0.37 0.39 0.44 0.50 0.52 0.53 0.55 0.56 0.59 0.63 0.64 0.63 0.58 0.57 0.56
0.24 0.23 0.20 0.18 0.16 0.17 0.18 0.18 0.17 0.17 0.16 0.17 0.18 0.19 0.20 0.22 0.26 0.27 0.26 0.27 0.28 0.28 0.27 0.29 0.32 0.33 0.32 0.33 0.36 0.40 0.45 0.51 0.60 0.64 0.63 0.61 0.59 0.61 0.62 0.64 0.67 0.66 0.63 0.60
0.29 0.28 0.25 0.23 0.22 0.21 0.21 0.21 0.22 0.23 0.21 0.21 0.21 0.21 0.21 0.22 0.23 0.25 0.27 0.28 0.29 0.29 0.29 0.29 0.30 0.32 0.34 0.36 0.39 0.44 0.49 0.53 0.57 0.57 0.56 0.59 0.59 0.61 0.63 0.66 0.68 0.68 0.67 0.63
0.30 0.27 0.24 0.22 0.21 0.20 0.21 0.22 0.23 0.25 0.25 0.25 0.25 0.23 0.21 0.21 0.22 0.23 0.25 0.27 0.29 0.30 0.30 0.32 0.33 0.36 0.38 0.39 0.42 0.46 0.49 0.52 0.56 0.60 0.60 0.61 0.62 0.64 0.65 0.69 0.71 0.70 0.69 0.67